Probability
0 0 0 0 0 0 0 0 0 0 0 0 0 0 0 0 0 0 0 0 0 0 0 0 0 0 0 0 0 0 0 0 0 0 0 0 0 0 0 0 0 0 0
0 0 0 0 0 0 0 0 0 0 0 0 0 0 0 0 0 0 0 0 0 0 0 0 0 0 0 0 0 0 0 0 0 0 0 0 0 0 0 0 0 0 0
0 0 0 0 0 0 0 0 0 0 0 0 0 0 0 0 0 0 0 0 0 0 0 0 0 0 0 0 0 0 0 0 0 0 0 0 0 0 0 0 0 0 0
0 0 0 0 0 0 0 0 0 0 0 0 0 0 0 0 0 0 0 0 0 0 0 0 0 0 0 0 0 0 0 0 0 0 0 0 0 0 0 0 0 0 0
0 0 0 0 0 0 0 0 0 0 0 0 0 0 0 0 0 0 0 0 0 0 0 0 1 1 1 0 0 0 0 0 0 0 0 0 0 0 0 0 0 0 0
0 0 0 0 0 0 0 0 0 0 0 0 0 0 0 0 0 0 0 0 0 0 0 0 0 0 0 0 0 0 0 0 0 0 0 0 0 0 0 0 0 0 0
0 0 0 0 0 0 0 0 0 0 0 0 0 0 0 0 0 0 0 0 0 0 0 0 0 0 0 0 0 0 0 0 0 0 0 0 0 0 0 0 0 0 0
0 0 0 0 0 0 0 0 0 0 0 0 0 0 0 0 0 0 0 0 0 0 0 0 0 0 0 0 0 0 0 0 0 0 0 0 0 0 0 0 0 0 0
0 0 0 0 0 0 0 0 0 0 0 0 0 0 0 0 0 0 0 0 0 0 0 0 0 0 0 0 0 0 0 0 0 0 0 0 0 0 0 0 0 0 0
0 0 0 0 0 0 0 0 0 0 0 0 0 0 0 0 0 0 0 0 0 0 0 0 0 0 0 0 0 0 0 0 0 0 0 0 0 0 0 0 0 0 0
0 0 0 0 0 0 0 0 0 0 0 0 0 0 0 0 0 0 0 0 0 0 0 0 0 0 0 0 0 0 0 0 0 0 0 0 0 0 0 0 0 0 0
0 0 0 0 0 0 0 0 0 0 0 0 0 0 0 0 0 0 0 0 0 0 0 0 0 0 0 0 0 0 0 0 0 0 0 0 0 0 0 0 0 0 0
0 0 0 0 0 0 0 0 0 0 0 0 0 0 0 0 0 0 0 0 0 0 0 0 0 0 0 0 0 0 0 0 0 0 0 0 0 0 0 0 0 0 0
0 0 0 0 0 0 0 0 0 0 0 0 0 0 0 0 0 0 0 0 0 0 0 0 0 0 0 0 0 0 0 0 0 0 0 0 0 0 0 0 0 0 0
0 0 0 0 0 0 0 0 0 0 0 0 0 0 0 0 0 0 0 0 0 0 0 0 0 0 0 0 0 0 0 0 0 0 0 0 0 0 0 0 0 0 0
0 0 0 0 0 0 0 0 0 0 0 0 0 0 0 0 0 0 0 0 0 0 0 0 0 0 0 0 0 0 0 0 0 0 0 0 0 0 0 0 0 0 0
0 0 0 0 0 0 0 0 0 0 0 0 0 0 0 0 0 0 0 0 0 0 0 0 0 0 0 0 0 0 0 0 0 0 0 0 0 0 0 0 0 0 0
0 0 0 0 0 0 0 0 0 0 0 0 0 0 0 0 0 0 0 0 0 0 0 0 0 0 0 0 0 0 0 0 0 0 0 0 0 0 0 0 0 0 0
0 0 0 0 0 0 0 0 0 0 0 0 0 0 0 0 0 0 0 0 0 0 0 0 0 0 0 0 0 0 0 0 0 0 0 0 0 0 0 0 0 0 0
0 0 0 0 0 0 0 0 0 0 0 0 0 0 0 0 0 0 0 0 0 0 0 0 0 0 0 0 0 0 0 0 0 0 0 0 0 0 0 0 0 0 0
0 0 0 0 0 0 0 0 0 0 0 0 0 0 0 0 0 0 0 0 0 0 0 0 0 0 0 0 0 0 0 0 0 0 0 0 0 0 0 0 0 0 0
0 0 0 0 0 0 0 0 0 0 0 0 0 0 0 0 0 0 0 0 0 0 0 0 0 0 0 0 0 0 0 0 0 0 0 0 0 0 0 0 0 0 0
0 0 0 0 0 0 0 0 0 0 0 0 0 0 0 0 0 0 0 0 0 0 0 0 0 0 0 0 0 0 0 0 0 0 0 0 0 0 0 0 0 0 0
0 0 0 0 0 0 0 0 0 0 0 0 0 0 0 0 0 0 0 0 0 0 0 0 0 0 0 0 0 0 0 0 0 0 0 0 0 0 0 0 0 0 0
0 0 0 0 0 0 0 0 0 0 0 0 0 0 0 0 0 0 0 0 0 0 0 0 0 0 0 0 0 0 0 0 0 0 0 0 0 0 0 0 0 0 0
0 0 0 0 0 0 0 0 0 0 0 0 0 0 0 0 0 0 0 0 0 0 0 0 0 0 0 0 0 0 0 0 0 0 0 0 0 0 0 0 0 0 0
Wind_Speed
14 14 14 14 14 14 13 14 13 11 12 12 13 13 13 13 13 13 14 13 15 14 13 14 15 12 10 9 9 9 9 9 12 5 2 4 8 9 8 8 7 8 8
12 12 13 12 11 13 14 13 12 12 12 13 12 12 13 13 13 14 15 15 15 16 15 14 15 10 13 10 9 10 10 9 9 9 3 4 6 8 7 7 6 6 5
9 10 11 11 12 13 13 12 11 11 11 11 12 13 13 13 13 14 14 14 15 15 14 14 13 12 13 10 10 10 8 7 7 6 4 3 2 4 6 5 6 5 6
8 9 10 11 12 12 10 10 10 10 10 11 12 12 12 11 12 12 12 13 13 13 12 12 12 12 13 11 9 10 7 6 5 4 4 4 3 4 5 6 6 6 5
8 9 10 9 8 7 7 8 7 8 9 9 9 10 10 9 9 10 10 11 12 11 10 10 11 12 13 11 8 8 8 6 5 5 5 4 5 5 7 6 6 5 4
8 8 7 6 6 6 7 6 6 7 7 7 8 8 9 8 10 12 11 9 9 10 9 8 7 8 10 11 11 10 9 8 8 6 6 7 7 7 5 6 6 5 5
7 6 5 6 6 6 5 5 6 6 6 6 6 7 8 8 9 10 12 9 8 8 8 6 5 4 6 5 6 7 7 9 9 7 7 8 7 9 10 9 8 6 4
6 6 6 6 6 5 5 5 5 4 4 4 5 5 5 5 6 8 9 8 7 6 6 6 6 5 5 6 4 4 3 3 5 4 5 5 5 8 9 8 7 5 4
6 6 6 7 6 6 6 5 4 3 3 3 2 3 4 4 4 6 6 4 4 4 3 4 5 5 7 9 6 5 4 2 3 5 5 6 8 12 11 7 7 6 3
7 6 6 6 6 6 6 5 3 3 3 3 2 2 3 3 3 4 5 3 3 3 2 2 4 5 7 9 6 6 6 4 5 5 5 6 6 10 13 8 8 6 4
5 5 5 5 6 5 5 4 4 4 4 3 3 1 1 1 2 3 4 3 3 3 2 2 2 6 7 8 7 5 6 7 6 6 5 4 4 4 5 4 4 4 5
5 6 5 5 5 4 5 4 4 5 4 4 3 2 1 1 1 2 3 3 4 3 2 2 3 6 7 7 5 6 9 8 5 4 4 4 4 4 4 4 3 2 2
6 5 5 5 5 5 5 5 4 4 4 3 3 3 2 1 1 3 3 4 4 2 2 4 5 6 5 4 6 9 7 5 4 4 4 3 3 4 4 3 3 3 3
6 5 5 5 5 4 3 4 4 4 4 4 4 3 2 2 1 2 2 3 4 4 3 4 6 6 5 5 5 5 3 3 4 3 3 3 3 4 3 3 3 3 2
5 5 5 4 5 4 3 2 3 2 3 4 3 3 4 3 3 5 4 3 3 4 5 3 3 3 3 2 3 3 3 3 3 3 3 3 3 3 3 3 3 3 3
5 4 4 4 4 4 4 4 6 5 6 5 5 4 2 3 5 6 6 6 8 10 5 3 3 3 3 3 3 3 3 3 3 3 3 4 4 4 3 3 3 3 4
4 4 3 3 4 4 4 4 4 5 7 7 6 6 5 5 6 6 7 8 8 8 3 3 3 3 3 3 3 3 3 3 3 3 4 4 4 4 4 4 4 3 4
4 4 4 3 3 3 3 3 4 4 3 2 4 6 6 6 6 6 7 7 4 3 2 2 2 2 2 2 2 2 2 3 3 3 3 4 4 4 4 4 5 5 4
4 3 3 4 3 3 3 4 4 4 4 3 2 3 4 5 7 7 6 3 3 2 2 2 2 2 2 2 2 2 2 3 3 3 3 4 4 4 4 5 5 6 5
4 5 5 4 4 4 4 4 4 4 4 3 2 1 1 3 3 3 3 3 2 2 2 2 1 1 1 1 1 2 2 2 3 3 3 3 3 4 5 5 5 5 5
3 4 5 5 4 3 3 3 3 4 3 3 2 2 4 3 3 3 3 3 2 2 2 2 2 1 1 1 1 1 2 2 2 2 2 3 3 3 3 4 4 5 4
3 4 4 4 4 4 4 3 3 4 3 3 2 3 5 4 3 3 3 3 3 2 2 2 2 1 1 1 1 1 1 2 2 2 2 2 3 3 3 3 3 3 4
4 4 4 4 4 5 4 4 4 4 3 3 3 2 3 3 3 3 3 2 2 2 2 2 2 2 1 1 0 1 1 2 2 2 2 2 2 3 3 3 4 4 4
4 4 4 4 4 4 4 3 3 3 3 3 2 2 2 2 2 2 2 1 2 2 2 2 1 1 1 1 1 1 1 1 1 2 3 3 3 3 3 3 4 4 4
4 4 4 3 3 3 3 3 3 3 2 2 2 2 1 1 1 1 1 1 1 1 1 1 1 1 1 1 1 2 2 2 2 2 2 3 3 3 3 3 3 3 3
3 3 3 3 2 2 2 2 2 2 1 1 1 1 1 1 0 0 1 1 1 1 1 1 1 2 2 2 3 4 4 4 4 4 3 3 3 3 4 3 4 4 4
Wind_Direction
206 207 209 211 212 214 216 218 217 214 210 211 211 212 214 216 216 218 223 221 225 229 227 228 232 229 230 228 226 227 228 229 248 249 179 164 179 192 193 192 188 196 200
205 204 208 210 208 211 217 219 215 215 213 213 212 214 216 218 217 219 223 225 227 229 230 230 233 229 231 231 230 231 231 226 234 245 196 173 185 188 180 183 185 192 193
198 200 205 207 208 213 217 217 215 215 215 212 212 216 219 219 220 221 223 226 228 231 230 230 232 227 232 230 229 232 231 225 224 228 201 160 151 160 161 173 182 186 195
193 197 204 208 211 214 215 213 213 213 214 214 215 218 219 220 221 221 222 226 229 231 231 230 230 227 230 227 227 228 223 219 208 205 182 154 153 153 162 176 187 188 193
190 199 209 208 205 205 205 207 207 209 213 215 216 218 219 220 221 219 221 225 229 231 231 230 230 228 227 224 222 219 210 213 200 196 190 166 171 170 188 179 187 170 181
193 204 202 193 193 198 201 199 200 207 209 210 214 216 219 221 220 216 217 224 226 229 231 230 228 225 227 225 225 220 207 206 204 201 200 198 196 185 166 169 164 163 196
192 194 188 185 192 199 195 192 202 204 202 209 215 215 222 223 218 216 217 223 226 228 227 223 220 213 212 212 212 215 218 213 204 196 199 201 188 182 171 173 181 180 183
184 187 185 182 187 183 181 193 199 191 194 204 211 216 224 227 219 217 215 221 228 227 219 211 208 203 194 187 183 186 195 203 202 199 203 194 180 169 174 172 165 133 89
188 192 187 180 179 178 184 191 184 177 186 189 191 202 215 226 214 213 205 204 214 219 211 197 192 194 190 180 173 177 175 172 160 154 156 156 157 158 154 138 143 147 160
198 193 180 174 174 180 183 176 165 169 180 173 184 191 197 211 199 197 191 189 202 204 191 184 190 189 184 177 172 172 180 173 146 132 130 135 140 155 161 165 163 164 155
177 165 164 168 170 169 163 159 155 156 158 165 168 161 173 196 193 186 182 181 188 185 181 182 186 185 182 181 175 175 177 155 147 142 136 131 129 143 159 159 163 167 166
154 157 161 160 155 153 152 152 152 155 160 164 161 160 153 153 153 166 166 171 165 170 180 177 178 177 178 173 167 159 151 139 136 141 146 156 160 162 159 152 143 120 108
149 156 155 149 148 151 153 156 155 158 163 168 167 174 176 154 135 136 140 140 146 140 149 156 155 161 156 152 153 148 142 141 146 157 169 171 157 144 133 123 112 103 84
152 153 152 150 145 142 145 153 157 166 169 169 173 175 166 154 150 137 129 121 119 117 118 125 131 133 119 115 131 131 130 144 154 161 152 135 128 135 148 154 159 158 157
145 147 147 144 142 138 132 134 147 149 162 164 171 166 165 174 183 165 150 146 144 139 127 115 117 125 125 122 120 120 124 132 135 133 137 140 150 158 163 160 157 162 180
142 147 148 144 140 141 138 114 90 97 100 110 122 130 122 132 143 153 152 148 147 143 129 139 148 154 161 160 159 155 158 165 160 153 156 162 172 179 175 169 170 183 201
135 138 135 135 139 144 145 143 130 91 81 82 91 105 111 123 129 139 144 143 143 141 129 144 156 165 168 168 170 170 174 172 161 164 171 173 174 176 176 183 189 199 213
111 113 120 124 128 133 135 133 135 138 129 81 55 73 92 108 113 124 134 132 132 124 116 141 150 154 158 165 168 166 163 159 166 175 180 182 181 182 188 195 198 205 210
99 102 107 110 112 116 120 120 119 120 118 109 78 51 56 90 98 102 112 108 129 132 125 129 134 140 147 156 163 164 168 178 183 185 192 193 192 193 201 203 204 206 207
83 89 98 105 107 109 110 114 116 116 113 108 96 68 51 83 93 90 78 83 96 102 108 113 113 117 129 146 160 164 172 183 188 196 200 201 201 202 209 209 207 209 213
83 88 90 94 95 100 105 108 111 113 113 107 89 76 93 98 97 89 80 71 72 76 81 93 97 102 108 123 143 161 173 184 187 192 196 201 202 210 214 213 215 217 219
78 84 87 93 95 94 96 98 101 103 105 100 79 64 72 78 83 81 75 64 55 51 51 72 81 79 83 112 155 173 188 198 198 198 203 205 205 209 212 215 216 215 214
75 83 84 81 84 89 89 88 90 94 94 90 87 76 70 74 77 76 68 52 46 42 37 51 66 54 38 32 44 177 203 217 215 204 205 211 214 214 212 216 217 217 217
71 79 84 83 81 82 85 84 82 86 89 87 82 79 77 77 76 72 65 52 47 41 37 43 51 39 11 359 356 344 290 266 235 212 205 209 214 216 216 222 221 221 222
67 75 81 85 88 91 91 90 89 89 88 88 90 89 87 86 81 69 54 44 38 32 17 11 7 349 314 300 294 282 279 279 259 221 208 208 213 213 212 220 222 223 219
63 68 72 78 86 92 101 104 101 98 97 94 95 98 95 85 66 33 7 1 351 336 326 323 312 299 290 285 278 276 269 263 247 228 207 204 206 211 207 212 214 216 212